Dewpoint
55 55 54 50 49 49 52 50 50 52 50 47 48 49 49 52 54 54 54 55 55 54 52 52 51 51 51 51 50 47 48 51 50 50 50 50 50 51 50 49 50 48
57 56 53 52 51 49 51 52 53 51 51 50 49 49 51 52 55 54 55 55 54 54 53 52 51 50 50 49 50 49 48 51 50 49 51 51 50 51 51 51 50 49
57 57 56 54 52 54 55 55 54 53 51 51 51 50 52 54 54 54 55 55 54 54 53 52 51 50 49 49 49 49 49 49 50 50 50 50 50 50 51 50 49 50
58 58 56 56 54 55 57 56 55 54 53 53 52 52 53 55 54 54 55 55 54 54 54 52 51 50 48 48 49 48 49 49 48 50 50 49 49 49 49 49 49 49
58 57 57 56 55 55 57 56 55 54 54 54 55 54 53 53 53 54 54 54 54 53 53 52 50 50 49 49 49 49 48 47 49 49 48 49 49 50 49 49 49 49
57 55 55 55 56 56 56 56 55 55 54 55 56 54 52 52 52 52 53 54 54 53 53 51 50 49 49 49 49 49 48 47 48 48 47 47 47 48 45 47 47 47
56 57 57 55 56 56 57 56 56 55 54 55 55 55 53 52 51 51 51 52 52 52 51 51 50 50 49 49 48 48 47 48 47 47 46 46 47 47 45 46 44 43
55 56 56 55 56 56 57 55 55 55 56 55 56 56 54 53 50 51 51 52 50 50 50 49 49 48 48 48 47 48 48 49 48 46 45 45 46 44 46 45 46 44
55 54 54 56 56 56 56 55 55 56 56 56 55 55 55 54 51 51 51 51 50 51 49 49 48 47 49 48 48 47 46 48 49 46 46 46 46 44 40 42 43 45
56 56 56 56 56 55 55 56 55 55 56 56 55 54 54 54 53 51 51 51 51 50 49 48 48 48 48 47 46 46 46 46 46 46 45 45 44 42 40 42 43 43
57 57 58 57 57 56 56 56 56 56 56 54 55 54 54 54 53 52 52 51 52 49 49 48 48 47 47 47 47 47 46 46 45 44 46 44 44 44 45 42 43 42
58 58 57 58 58 57 57 57 57 57 56 56 54 53 54 53 52 52 51 50 50 49 49 48 47 47 46 45 45 46 47 46 45 45 44 43 43 43 42 43 43 40
56 57 57 57 57 57 57 56 55 56 56 55 55 54 54 53 53 51 52 50 49 50 49 48 48 47 47 47 46 45 46 45 45 45 44 44 43 41 41 40 39 37
50 55 56 57 57 57 57 57 56 56 55 56 55 55 54 53 53 51 52 50 51 50 49 48 48 47 46 46 45 46 46 45 45 45 44 45 44 41 40 38 38 37
46 48 51 51 53 54 55 56 56 56 56 55 55 55 55 54 54 52 52 51 50 50 49 48 48 51 47 49 46 45 45 45 45 43 43 42 41 39 38 37 36 36
42 44 44 46 48 50 51 54 54 55 56 55 55 54 54 54 53 53 52 51 51 51 50 50 51 50 48 44 43 44 44 43 45 43 40 39 39 38 37 37 37 37
40 41 42 43 45 48 49 49 52 55 55 54 53 53 54 54 53 52 52 52 51 52 51 52 50 49 41 39 39 40 43 44 41 40 39 38 37 37 37 37 36 33
36 37 39 41 42 42 45 48 50 52 54 54 55 54 54 55 54 52 53 51 51 50 52 50 50 41 38 37 36 36 38 40 40 39 38 37 36 36 35 35 35 35
38 38 38 39 42 43 45 49 49 50 51 52 53 55 54 53 53 53 52 52 51 50 50 49 48 38 37 36 36 36 36 37 36 37 36 36 36 36 35 35 35 34
40 40 41 42 43 45 47 46 48 49 51 52 53 54 53 53 54 53 53 52 51 50 48 47 43 38 36 36 36 35 34 36 36 37 37 35 34 34 36 35 35 35
41 41 42 43 44 44 47 46 47 49 50 51 51 51 52 51 51 52 52 51 50 49 47 45 41 37 36 35 35 34 34 35 38 38 36 36 36 36 36 36 36 37
43 42 42 42 43 45 46 47 48 49 50 51 50 50 50 50 50 51 52 51 49 47 46 42 39 36 35 35 35 34 33 35 37 37 36 35 34 34 34 33 33 35
42 42 43 43 43 44 44 47 48 49 49 49 50 49 48 48 50 51 50 49 47 45 43 38 37 36 35 35 34 33 34 36 36 33 32 34 34 33 33 34 36 35
42 42 42 43 43 43 44 46 48 49 49 49 48 47 47 48 50 50 49 46 44 42 38 36 36 36 34 34 33 33 36 34 32 31 31 31 31 33 33 33 34 39
42 43 43 43 43 44 45 46 47 48 48 48 47 48 48 49 49 48 46 44 41 39 39 36 33 34 34 33 34 34 35 33 30 27 28 29 29 29 32 33 33 36
43 43 44 44 44 44 45 45 46 47 48 48 48 48 48 48 47 45 44 42 41 38 38 36 32 32 34 34 34 34 35 35 29 27 27 29 29 28 30 31 32 33